Weather History for Big Piney, WY

Change the Weather History Date:

Monday, July 8, 2013

  Actual Average Record
Temperature  
Mean Temperature 64 °F 61 °F  
Max Temperature 82 °F 80 °F 92 °F (2002)
Min Temperature 45 °F 43 °F 31 °F (1993)
Degree Days  
Heating Degree Days 1 4  
Month to date heating degree days 2 40  
Since 1 June heating degree days 219 345  
Since 1 July heating degree days 2 40  
Cooling Degree Days 0 0  
Month to date cooling degree days 31 0  
Year to date cooling degree days 51 2  
Since 1 June cooling degree days 51 2  
Growing Degree Days 14 (Base 50)    
Moisture  
Dew Point 42 °F    
Average Humidity 54    
Maximum Humidity 86    
Minimum Humidity 21    
Precipitation  
Precipitation T in 0.02 in 0.14 in (1986)
Month to date precipitation 0.36 0.16  
Year to date precipitation 2.06 3.42  
Sea Level Pressure  
Sea Level Pressure 30.01 in    
Wind  
Wind Speed 5 mph (WSW)    
Max Wind Speed 36 mph    
Max Gust Speed 48 mph    
Visibility 10 miles    
Events Rain , Thunderstorm    
T = Trace of Precipitation, MM = Missing Value Source: NWS Daily Summary

Daily Weather History Graph

Daily Weather History Graph

Search for Another Location

Airport:

Trip Planner

Search our weather history database for the weather conditions in past years. The results will help you decide how hot, cold, wet, or windy it might be!

Date:

Astronomy

Jul. 08, 2013 Rise Set
Actual Time 5:51 AM MDT 8:59 PM MDT
Civil Twilight 5:16 AM MDT 9:33 PM MDT
Nautical Twilight 4:32 AM MDT 10:17 PM MDT
Astronomical Twilight 3:39 AM MDT 11:10 PM MDT
Moon 6:25 AM MDT (7/8) 9:01 PM MDT (7/8)
Length of Visible Light 16h 17m
Length of Day
15h 08m
Waxing Crescent, 0% of the Moon is Illuminated
Jul 8
Waxing Crescent
Jul 15
First Quarter
Jul 22
Full
Jul 29
Last Quarter
Aug 6
New

Hourly Weather History & Observations

Time (MDT) Temp. Dew Point Humidity Pressure Visibility Wind Dir Wind Speed Gust Speed Precip Events Conditions
12:53 AM 55.0 °F 48.0 °F 77% 29.96 in 10.0 mi NW 10.4 mph - N/A   Partly Cloudy
1:53 AM 52.0 °F 46.9 °F 83% 29.96 in 10.0 mi NW 8.1 mph - N/A   Clear
2:53 AM 50.0 °F 46.0 °F 86% 29.95 in 10.0 mi Calm Calm - N/A   Clear
3:53 AM 48.9 °F 45.0 °F 86% 29.95 in 10.0 mi Calm Calm - N/A   Clear
4:53 AM 50.0 °F 46.0 °F 86% 29.97 in 10.0 mi Calm Calm - N/A   Clear
5:53 AM 48.0 °F 45.0 °F 89% 30.01 in 10.0 mi Calm Calm - N/A   Clear
6:53 AM 50.0 °F 46.0 °F 86% 30.04 in 10.0 mi North 3.5 mph - N/A   Clear
7:53 AM 55.9 °F 46.9 °F 72% 30.05 in 10.0 mi Calm Calm - N/A   Clear
8:53 AM 61.0 °F 46.9 °F 60% 30.04 in 10.0 mi Calm Calm - N/A   Clear
9:53 AM 64.9 °F 45.0 °F 48% 30.03 in 10.0 mi SE 4.6 mph - N/A   Partly Cloudy
10:53 AM 66.9 °F 46.0 °F 47% 30.03 in 10.0 mi South 5.8 mph - N/A   Clear
11:53 AM 72.0 °F 45.0 °F 38% 30.01 in 10.0 mi SW 6.9 mph - N/A   Clear
12:53 PM 77.0 °F 44.1 °F 31% 29.99 in 10.0 mi South 8.1 mph - N/A   Clear
1:53 PM 78.1 °F 42.1 °F 28% 29.98 in 10.0 mi SSE 5.8 mph - N/A   Clear
2:53 PM 78.1 °F 37.0 °F 23% 29.97 in 10.0 mi South 8.1 mph - 0.00 in Rain Light Rain
3:48 PM 78.8 °F 35.6 °F 21% 30.24 in 10.0 mi South 10.4 mph - 0.00 in Rain , Thunderstorm Light Rain
3:53 PM 80.1 °F 37.0 °F 21% 29.95 in 10.0 mi South 6.9 mph - 0.00 in Rain , Thunderstorm Light Rain
4:03 PM 80.6 °F 35.6 °F 20% 30.23 in 10.0 mi SSE 12.7 mph 18.4 mph 0.00 in   Partly Cloudy
4:53 PM 80.1 °F 34.0 °F 19% 29.94 in 10.0 mi West 3.5 mph - 0.00 in   Partly Cloudy
5:53 PM 79.0 °F 36.0 °F 21% 29.95 in 10.0 mi NNW 17.3 mph - N/A   Overcast
6:53 PM 70.0 °F 37.0 °F 30% 30.01 in 10.0 mi NNW 23.0 mph 36.8 mph N/A   Clear
7:53 PM 73.0 °F 35.1 °F 25% 29.96 in 10.0 mi WNW 11.5 mph - N/A   Clear
8:53 PM 66.0 °F 36.0 °F 33% 29.98 in 10.0 mi WNW 6.9 mph - N/A   Clear
9:53 PM 63.0 °F 37.0 °F 38% 30.01 in 10.0 mi North 5.8 mph - N/A   Clear
10:53 PM 60.1 °F 39.9 °F 47% 30.03 in 10.0 mi Calm Calm - N/A   Clear
11:53 PM 55.9 °F 39.9 °F 55% 30.03 in 10.0 mi WNW 3.5 mph - N/A   Clear